User: anonymous   Login
Location: Durham
(35.9940°N, 78.8990°W)
Time: 13:24:26
(UTC-04:00)
Language:

Iridium 63 - Orbit

View from above orbital plane
View from above orbital plane
View from above satellite
View from above satellite

Ground track
Ground track

The orbit data is extracted from the following two-line orbital elements,

1 25286U 98021B   18110.94318595 +.00000060 +00000-0 +14104-4 0  9998
2 25286 086.3952 095.7196 0002302 092.8700 321.6960 14.34719588048894
Epoch (UTC): 20 April 2018 22:38:11
Eccentricity: 0.0002302
inclination: 86.3952°
perigee height: 774 km
apogee height: 777 km
right ascension of ascending node: 95.7196°
argument of perigee: 92.8700°
revolutions per day: 14.34719588
mean anomaly at epoch: 321.6960°
orbit number at epoch: 4889

The dashed part of the orbit path shows where the satellite is in the earth's shadow,  

DLR